Aviation Digital Data Service (ADDS)

Output produced by METARs form (0343 UTC 23 November 2017)
found at http://www.aviationweather.gov/adds/metars/
 
VEAT 230330Z 00000KT 2000 BR NSC 22/20 Q1012 NOSIG
VAAH 230330Z 02009KT 3000 HZ NSC 22/08 Q1014 BECMG 4000
TAF VAAH 222300Z 2300/2406 02002KT 4000 FUHZ NSC 
     BECMG 2301/2303 05005KT 1500 FUHZ 
     BECMG 2305/2307 06007KT 6000 
     BECMG 2312/2314 36003KT 4000 FUHZ 
     BECMG 2401/2403 03004KT 1500 FUHZ 
     BECMG 2404/2406 06006KT 5000 FU
       
VIAR 230230Z 00000KT 1700 BR SCT100 09/09 Q1014 NOSIG
TAF VIAR 222300Z 2300/2406 VRB02KT 1500 BR FEW100 
     BECMG 2305/2307 30006KT 4000 HZ NSC 
     BECMG 2314/2316 VRB02KT 2500 HZ BR 
     BECMG 2321/2322 00000KT 1500 BR 
     BECMG 2404/2406 30007KT 3000 BR HZ
       
VIDP 230230Z 23004KT 1100 R28/P2000 R29/P2000 FU NSC 11/04 Q1014 NOSIG
TAF VIDP 222300Z 2300/2406 26005KT 1500 FU FEW100 
     BECMG 2305/2307 29008KT 3500 HZ NSC 
     BECMG 2314/2316 26005KT 2500 HZ FU 
     BECMG 2321/2322 00000KT 1500 FU BR 
     BECMG 2404/2406 29006KT 3000 HZ
       
VIGR 230300Z 00000KT 2500 HZ NSC 11/08 Q1015
VIJP 230330Z 00000KT 2000 FU NSC 21/M01 Q1017 NOSIG
TAF VIJP 222300Z 2300/2406 00000KT 1500 FU HZ NSC 
     BECMG 2304/2306 34005KT 3500 HZ FEW100 
     BECMG 2313/2315 VRB02KT 2000 HZ FU 
     BECMG 2400/2402 00000KT 1500 FU 
     BECMG 2404/2405 34005KT 2500 HZ NSC
       
VILK 230330Z VRB02KT 1300 R27/2000 HZ NSC 16/09 Q1015 NOSIG
TAF VILK 222300Z 2300/2406 00000KT 0800 MIFG NSC 
     BECMG 2302/2304 VRB02KT 1500 BR 
     BECMG 2306/2308 29004KT 2500 HZ 
     BECMG 2315/2317 VRB02KT 1500 HZ BR 
     BECMG 2403/2405 29004KT 2000 HZ
       
VAAH 230330Z 02009KT 3000 HZ NSC 22/08 Q1014 BECMG 4000
TAF VAAH 222300Z 2300/2406 02002KT 4000 FUHZ NSC 
     BECMG 2301/2303 05005KT 1500 FUHZ 
     BECMG 2305/2307 06007KT 6000 
     BECMG 2312/2314 36003KT 4000 FUHZ 
     BECMG 2401/2403 03004KT 1500 FUHZ 
     BECMG 2404/2406 06006KT 5000 FU
       
VAAU 230300Z 02002KT 4000 HZ FEW020 21/18 Q1015 NOSIG
VABB 230330Z 12004KT 2500 FU NSC 28/16 Q1012 NOSIG
TAF VABB 222300Z 2300/2406 02003KT 3000 HZ NSC 
     BECMG 2303/2305 32007KT 4000 HZ FU FEW020 
     BECMG 2307/2309 35010KT 5000 FU NSC 
     BECMG 2311/2313 05004KT 4000 HZ FU 
     BECMG 2317/2319 02003KT 3000 HZ 
     BECMG 2400/2402 35005KT 4000 FU HZ 
     BECMG 2403/2405 32009KT 5000 FU
       
VABO 230300Z 02004KT 2000 HZ NSC 19/14 Q1012 NOSIG
VABP 230300Z 06003KT 3000 HZ NSC 13/09 Q1015 NOSIG
VABV 230330Z 30002KT 2000 FU NSC 21/13 Q1013
VAID 230300Z 07004KT 3000 HZ NSC 19/07 Q1016 NOSIG
VAJB 230300Z 00000KT 3000 HZ NSC 17/10 Q1016
VAJJ 230300Z 11006KT 060V160 5000 HZ NSC 31/24 Q1011 NOSIG
VANP 230330Z 00000KT 2500 HZ NSC 24/14 Q1015 NOSIG
TAF VANP 222300Z 2300/2406 05003KT 2000 HZ SCT020 SCT100 
     BECMG 2304/2306 02003KT 4000 HZ FEW020 SCT100 
     BECMG 2312/2314 00503KT 3000 HZ SCT020 BKN100 
     BECMG 2404/2406 07005KT 4000 HZ FEW020 SCT100 
     TEMPO 2400/2403 1500 BR HZ
       
VARK 230100Z 13004KT 5000 HZ NSC 18/09 Q1012
VAUD 230300Z 32003KT 5000 HZ NSC 16/03 Q1017 NOSIG
VIAR 230230Z 00000KT 1700 BR SCT100 09/09 Q1014 NOSIG
TAF VIAR 222300Z 2300/2406 VRB02KT 1500 BR FEW100 
     BECMG 2305/2307 30006KT 4000 HZ NSC 
     BECMG 2314/2316 VRB02KT 2500 HZ BR 
     BECMG 2321/2322 00000KT 1500 BR 
     BECMG 2404/2406 30007KT 3000 BR HZ
       
VAAU 230300Z 02002KT 4000 HZ FEW020 21/18 Q1015 NOSIG
VOBG 230330Z 11006KT 3000 BR FEW012 22/18 Q1016
TAF VOBG 230200Z 2303/2312 VRB03KT 3000 BR SCT010 
     BECMG 2304/2305 09005KT 6000 SCT012
       
VEAT 230330Z 00000KT 2000 BR NSC 22/20 Q1012 NOSIG
VEBN 230330Z 29004KT 1400 R27/1400 BR NSC 16/11 Q1014 BECMG 1500 HZ
TAF VEBN 222300Z 2300/2406 VRB02KT 0800 MIFG NSC 
     BECMG 2303/2305 29006KT 1500 HZ BR 
     BECMG 2307/2309 3000 HZ 
     BECMG 2313/2315 25003KT 1500 HZ BR 
     BECMG 2404/2406 VRB02KT 3000 HZ
       
VEBS 230330Z 05010KT 3500 HZ NSC 24/16 Q1013 NOSIG
VECC 230330Z 33007KT 2600 HZ NSC 19/11 Q1013 NOSIG
TAF VECC 222300Z 2300/2406 30004KT 2000 BR FEW020 
     BECMG 2303/2305 35005KT 3200 HZ 
     BECMG 2314/2316 28005KT 2500 BR HZ 
     BECMG 2323/2401 00000KT 1500 BR 
     BECMG 2403/2405 35005KT 3200 HZ
       
VEGT 220300Z 00000KT 1100 R02/1300 BR FEW012 SCT018 23/22 Q1013 NOSIG
VEGY 230300Z 23004KT 2200 HZ NSC 16/10 Q1015
VEIM 230300Z 06004KT 3500 BR FEW018 BKN100 18/16 Q1014 NOSIG
VEJS 230200Z 31503KT 2000 HZ NSC 16/11 Q1014
VEKO 230300Z 00000KT 1200Z BR NSC 14/11 Q1015
VELP 230330Z 03002KT 1500 BR SCT018 21/19 Q1012 NOSIG
VEMN 230330Z 15002KT 3000 BR FEW100 24/18 Q1014 NOSIG
VEPT 230330Z 25002KT 1500 BR NSC 16/10 Q1014 NOSIG
TAF VEPT 222300Z 2300/2406 27004KT 1200 BR NSC 
     BECMG 2303/2305 2500 HZ 
     BECMG 2307/2309 4000 HZ 
     BECMG 1915/1917 2500 HZ 
     BECMG 2400/2402 24003KT 1000 MIFG 
     BECMG 2404/2406 2000 BR
       
VERC 230330Z 35005KT 3000 HZ NSC 17/06 Q1016 NOSIG
VERP 230000Z 36002KT 3000 HZ NSC 18/14 Q1012 BECMG 2000 HZ
VOBG 230330Z 11006KT 3000 BR FEW012 22/18 Q1016
TAF VOBG 230200Z 2303/2312 VRB03KT 3000 BR SCT010 
     BECMG 2304/2305 09005KT 6000 SCT012
       
VOBL 230330Z 13005KT 090V170 6000 NSC 22/19 Q1017 NOSIG
TAF VOBL 230200Z 2303/2312 VRB03KT 3000 BR SCT010 
     BECMG 2304/2305 09005KT 6000 SCT012
       
VOBM 230300Z 09003KT 6000 FEW015 23/20 Q1017
TAF VOBM 230200Z 2303/2312 09005KT 6000 SCT015
       
VOBZ 230330Z 00000KT 2000 BR NSC 27/24 Q1012 NOSIG
VOCB 230330Z 06002KT 3500 BR FEW015 25/20 Q1014 NOSIG
TAF VOCB 222300Z 2300/2406 07010KT 4000 BR FEW015 SCT080 
     TEMPO 2300/2303 2000 BR 
     BECMG 2303/2305 6000 
     BECMG 2318/2319 4000 BR 
     BECMG 2403/2405 6000
       
VOCI 230330Z 06005KT 4500 HZ FEW020 28/24 Q1010 BECMG 5000 HZ
TAF VOCI 222300Z 2300/2406 VRB05KT 4000 HZ FEW015 SCT080 
     TEMPO 2300/2304 09005KT 1500 BR 
     BECMG 2306/2308 25010KT 5000 HZ 
     TEMPO 2312/2316 2500 TSRA RA SCT010 SCT015 FEW025CB BKN080 
     BECMG 2320/2322 VRB05KT 4000 HZ SCT015 SCT080 
     TEMPO 2400/2404 10005KT 2000 BR
       
VOCL 230330Z 08004KT 5000 BR FEW015 27/22 Q1010 NOSIG
TAF VOCL 222300Z 2300/2406 09005KT 3000 BR SCT012 BKN080 
     TEMPO 2300/2305 2000 BR RA SCT008 SCT012 FEW025CB BKN080 
     BECMG 2306/2308 25010KT 6000 SCT015 SCT080 
     TEMPO 2314/2318 2500 TSRA RA SCT008 SCT012 FEW025CB BKN080 
     BECMG 2320/2322 VRB05KT 4000 BR SCT015 FEW025CB SCT080 
     TEMPO 2400/2404 10005KT 2000 BR SCT015 SCT080
       
VOGO 230300Z 04006KT 5000 HZ FEW090 28/22 Q1010 BECMG 6000
VOHB 230300Z 10005KT 8000 NSC 24/19 Q1017
TAF VOHB 230200Z 2303/2312 09005KT 6000 SCT015
       
VOHS 230330Z VRB02KT 5000 BR NSC 25/23 Q1016 NOSIG
TAF VOHS 222300Z 2300/2406 12005KT 5000 HZ FEW015 SCT100 
     TEMPO 2300/2303 VRB03KT 1500 BR BKN010 
     BECMG 2305/2307 05008KT 6000 SCT015 SCT025 
     BECMG 2315/2317 13005KT 5000 HZ FEW015 SCT100 
     TEMPO 2323/2403 VRB03KT 1500 BR BKN010 
     BECMG 2405/2406 06007KT 6000 FEW015 SCT025
       
VOHY 230330Z VRB02KT 3000 HZ 27/21 Q1016 NOSIG
VOMD 230330Z 03008KT 5000 HZ FEW020 29/22 Q1012 NOSIG
TAF VOMD 222300Z 2300/2406 03010KT 4000 BR FEW018 SCT100 
     BECMG 2303/2305 6000 
     BECMG 2318/2319 4000 BR 
     BECMG 2403/2405 6000
       
VOML 230330Z 10004KT 6000 NSC 28/20 Q1011 NOSIG
TAF VOML 230200Z 2303/2312 09005KT 3000 BR SCT010 
     BECMG 2304/2305 27010KT 6000 SCT015 
     BECMG 2308/2309 27010KT
       
VOMM 230330Z 32003KT 3000 BR SCT018 29/25 Q1012 NOSIG
TAF VOMM 222300Z 2300/2406 00000KT 4000 BR FEW020 SCT100 
     TEMPO 2300/2303 2500 BR 
     BECMG 2303/2305 04010KT 6000 
     BECMG 2321/2322 00000KT 4000 BR 
     TEMPO 2400/2403 2500 BR 
     BECMG 2403/2405 04010KT 6000
       
TAF VOMY 230200Z 2303/2312 VRB03KT 3000 BR SCT010 
     BECMG 2304/2305 09005KT 6000 SCT012
       
VOND 230330Z 00000KT 2500 BR NSC 25/20 Q1015
VORY 230300Z 32005KT 2000 HZ FEW020 27/22 Q1012 NOSIG
VOTP 230330Z 00000KT 2000 BR SCT015 25/22 Q1012
VOTR 230330Z 35005KT 3000 HZ FEW020 27/21 Q1010 NOSIG
TAF VOTR 222300Z 2300/2406 03010KT 4000 BR FEW018 SCT100 
     TEMPO 2300/2303 2500 BR 
     BECMG 2306/2307 6000 
     BECMG 2318/2319 4000 BR 
     TEMPO 2400/2403 2500 BR
       
VOTV 230330Z 28004KT 3000 HZ FEW015 29/25 Q1009 BECMG 4000 HZ
TAF VOTV 222300Z 2300/2406 VRB05KT 4000 HZ SCT015 SCT080 
     TEMPO 2300/2304 09005KT 2000 BR SCT015 BKN080 
     BECMG 2306/2308 30010KT 6000 
     TEMPO 2312/2316 2000 TSRA RA SCT010 SCT015 FEW025CB BKN080 
     BECMG 2320/2322 VRB05KT 3000 HZ SCT015 FEW025CB SCT080 
     TEMPO 2400/2404 09005KT 2000 BR SCT015 SCT080
       
VOVZ 230300Z 33007KT 2500 BR/FU NSC 27/23 Q1012 BECMG 3000 BR/FU
VIAR 230230Z 00000KT 1700 BR SCT100 09/09 Q1014 NOSIG
TAF VIAR 222300Z 2300/2406 VRB02KT 1500 BR FEW100 
     BECMG 2305/2307 30006KT 4000 HZ NSC 
     BECMG 2314/2316 VRB02KT 2500 HZ BR 
     BECMG 2321/2322 00000KT 1500 BR 
     BECMG 2404/2406 30007KT 3000 BR HZ
       
VIDP 230230Z 23004KT 1100 R28/P2000 R29/P2000 FU NSC 11/04 Q1014 NOSIG
TAF VIDP 222300Z 2300/2406 26005KT 1500 FU FEW100 
     BECMG 2305/2307 29008KT 3500 HZ NSC 
     BECMG 2314/2316 26005KT 2500 HZ FU 
     BECMG 2321/2322 00000KT 1500 FU BR 
     BECMG 2404/2406 29006KT 3000 HZ
       
VIGR 230300Z 00000KT 2500 HZ NSC 11/08 Q1015
VIJP 230330Z 00000KT 2000 FU NSC 21/M01 Q1017 NOSIG
TAF VIJP 222300Z 2300/2406 00000KT 1500 FU HZ NSC 
     BECMG 2304/2306 34005KT 3500 HZ FEW100 
     BECMG 2313/2315 VRB02KT 2000 HZ FU 
     BECMG 2400/2402 00000KT 1500 FU 
     BECMG 2404/2405 34005KT 2500 HZ NSC
       
VILK 230330Z VRB02KT 1300 R27/2000 HZ NSC 16/09 Q1015 NOSIG
TAF VILK 222300Z 2300/2406 00000KT 0800 MIFG NSC 
     BECMG 2302/2304 VRB02KT 1500 BR 
     BECMG 2306/2308 29004KT 2500 HZ 
     BECMG 2315/2317 VRB02KT 1500 HZ BR 
     BECMG 2403/2405 29004KT 2000 HZ
       
VABV 230330Z 30002KT 2000 FU NSC 21/13 Q1013
VABP 230300Z 06003KT 3000 HZ NSC 13/09 Q1015 NOSIG
VEBS 230330Z 05010KT 3500 HZ NSC 24/16 Q1013 NOSIG
VERC 230330Z 35005KT 3000 HZ NSC 17/06 Q1016 NOSIG
VOCL 230330Z 08004KT 5000 BR FEW015 27/22 Q1010 NOSIG
TAF VOCL 222300Z 2300/2406 09005KT 3000 BR SCT012 BKN080 
     TEMPO 2300/2305 2000 BR RA SCT008 SCT012 FEW025CB BKN080 
     BECMG 2306/2308 25010KT 6000 SCT015 SCT080 
     TEMPO 2314/2318 2500 TSRA RA SCT008 SCT012 FEW025CB BKN080 
     BECMG 2320/2322 VRB05KT 4000 BR SCT015 FEW025CB SCT080 
     TEMPO 2400/2404 10005KT 2000 BR SCT015 SCT080
       
VOMM 230330Z 32003KT 3000 BR SCT018 29/25 Q1012 NOSIG
TAF VOMM 222300Z 2300/2406 00000KT 4000 BR FEW020 SCT100 
     TEMPO 2300/2303 2500 BR 
     BECMG 2303/2305 04010KT 6000 
     BECMG 2321/2322 00000KT 4000 BR 
     TEMPO 2400/2403 2500 BR 
     BECMG 2403/2405 04010KT 6000
       
VABB 230330Z 12004KT 2500 FU NSC 28/16 Q1012 NOSIG
TAF VABB 222300Z 2300/2406 02003KT 3000 HZ NSC 
     BECMG 2303/2305 32007KT 4000 HZ FU FEW020 
     BECMG 2307/2309 35010KT 5000 FU NSC 
     BECMG 2311/2313 05004KT 4000 HZ FU 
     BECMG 2317/2319 02003KT 3000 HZ 
     BECMG 2400/2402 35005KT 4000 FU HZ 
     BECMG 2403/2405 32009KT 5000 FU
       
VOCI 230330Z 06005KT 4500 HZ FEW020 28/24 Q1010 BECMG 5000 HZ
TAF VOCI 222300Z 2300/2406 VRB05KT 4000 HZ FEW015 SCT080 
     TEMPO 2300/2304 09005KT 1500 BR 
     BECMG 2306/2308 25010KT 5000 HZ 
     TEMPO 2312/2316 2500 TSRA RA SCT010 SCT015 FEW025CB BKN080 
     BECMG 2320/2322 VRB05KT 4000 HZ SCT015 SCT080 
     TEMPO 2400/2404 10005KT 2000 BR
       
VOCB 230330Z 06002KT 3500 BR FEW015 25/20 Q1014 NOSIG
TAF VOCB 222300Z 2300/2406 07010KT 4000 BR FEW015 SCT080 
     TEMPO 2300/2303 2000 BR 
     BECMG 2303/2305 6000 
     BECMG 2318/2319 4000 BR 
     BECMG 2403/2405 6000
       
VAID 230300Z 07004KT 3000 HZ NSC 19/07 Q1016 NOSIG
VEMN 230330Z 15002KT 3000 BR FEW100 24/18 Q1014 NOSIG
VEAT 230330Z 00000KT 2000 BR NSC 22/20 Q1012 NOSIG
VEBN 230330Z 29004KT 1400 R27/1400 BR NSC 16/11 Q1014 BECMG 1500 HZ
TAF VEBN 222300Z 2300/2406 VRB02KT 0800 MIFG NSC 
     BECMG 2303/2305 29006KT 1500 HZ BR 
     BECMG 2307/2309 3000 HZ 
     BECMG 2313/2315 25003KT 1500 HZ BR 
     BECMG 2404/2406 VRB02KT 3000 HZ
       
VEBS 230330Z 05010KT 3500 HZ NSC 24/16 Q1013 NOSIG
VECC 230330Z 33007KT 2600 HZ NSC 19/11 Q1013 NOSIG
TAF VECC 222300Z 2300/2406 30004KT 2000 BR FEW020 
     BECMG 2303/2305 35005KT 3200 HZ 
     BECMG 2314/2316 28005KT 2500 BR HZ 
     BECMG 2323/2401 00000KT 1500 BR 
     BECMG 2403/2405 35005KT 3200 HZ
       
VEGT 220300Z 00000KT 1100 R02/1300 BR FEW012 SCT018 23/22 Q1013 NOSIG
VEGY 230300Z 23004KT 2200 HZ NSC 16/10 Q1015
VEIM 230300Z 06004KT 3500 BR FEW018 BKN100 18/16 Q1014 NOSIG
VEJS 230200Z 31503KT 2000 HZ NSC 16/11 Q1014
VEKO 230300Z 00000KT 1200Z BR NSC 14/11 Q1015
VELP 230330Z 03002KT 1500 BR SCT018 21/19 Q1012 NOSIG
VEMN 230330Z 15002KT 3000 BR FEW100 24/18 Q1014 NOSIG
VEPT 230330Z 25002KT 1500 BR NSC 16/10 Q1014 NOSIG
TAF VEPT 222300Z 2300/2406 27004KT 1200 BR NSC 
     BECMG 2303/2305 2500 HZ 
     BECMG 2307/2309 4000 HZ 
     BECMG 1915/1917 2500 HZ 
     BECMG 2400/2402 24003KT 1000 MIFG 
     BECMG 2404/2406 2000 BR
       
VERC 230330Z 35005KT 3000 HZ NSC 17/06 Q1016 NOSIG
VERP 230000Z 36002KT 3000 HZ NSC 18/14 Q1012 BECMG 2000 HZ
VAAH 230330Z 02009KT 3000 HZ NSC 22/08 Q1014 BECMG 4000
TAF VAAH 222300Z 2300/2406 02002KT 4000 FUHZ NSC 
     BECMG 2301/2303 05005KT 1500 FUHZ 
     BECMG 2305/2307 06007KT 6000 
     BECMG 2312/2314 36003KT 4000 FUHZ 
     BECMG 2401/2403 03004KT 1500 FUHZ 
     BECMG 2404/2406 06006KT 5000 FU
       
VAAU 230300Z 02002KT 4000 HZ FEW020 21/18 Q1015 NOSIG
VABB 230330Z 12004KT 2500 FU NSC 28/16 Q1012 NOSIG
TAF VABB 222300Z 2300/2406 02003KT 3000 HZ NSC 
     BECMG 2303/2305 32007KT 4000 HZ FU FEW020 
     BECMG 2307/2309 35010KT 5000 FU NSC 
     BECMG 2311/2313 05004KT 4000 HZ FU 
     BECMG 2317/2319 02003KT 3000 HZ 
     BECMG 2400/2402 35005KT 4000 FU HZ 
     BECMG 2403/2405 32009KT 5000 FU
       
VABO 230300Z 02004KT 2000 HZ NSC 19/14 Q1012 NOSIG
VABP 230300Z 06003KT 3000 HZ NSC 13/09 Q1015 NOSIG
VABV 230330Z 30002KT 2000 FU NSC 21/13 Q1013
VAID 230300Z 07004KT 3000 HZ NSC 19/07 Q1016 NOSIG
VAJB 230300Z 00000KT 3000 HZ NSC 17/10 Q1016
VAJJ 230300Z 11006KT 060V160 5000 HZ NSC 31/24 Q1011 NOSIG
VANP 230330Z 00000KT 2500 HZ NSC 24/14 Q1015 NOSIG
TAF VANP 222300Z 2300/2406 05003KT 2000 HZ SCT020 SCT100 
     BECMG 2304/2306 02003KT 4000 HZ FEW020 SCT100 
     BECMG 2312/2314 00503KT 3000 HZ SCT020 BKN100 
     BECMG 2404/2406 07005KT 4000 HZ FEW020 SCT100 
     TEMPO 2400/2403 1500 BR HZ
       
VARK 230100Z 13004KT 5000 HZ NSC 18/09 Q1012
VAUD 230300Z 32003KT 5000 HZ NSC 16/03 Q1017 NOSIG
VIAR 230230Z 00000KT 1700 BR SCT100 09/09 Q1014 NOSIG
TAF VIAR 222300Z 2300/2406 VRB02KT 1500 BR FEW100 
     BECMG 2305/2307 30006KT 4000 HZ NSC 
     BECMG 2314/2316 VRB02KT 2500 HZ BR 
     BECMG 2321/2322 00000KT 1500 BR 
     BECMG 2404/2406 30007KT 3000 BR HZ
       
VIDP 230230Z 23004KT 1100 R28/P2000 R29/P2000 FU NSC 11/04 Q1014 NOSIG
TAF VIDP 222300Z 2300/2406 26005KT 1500 FU FEW100 
     BECMG 2305/2307 29008KT 3500 HZ NSC 
     BECMG 2314/2316 26005KT 2500 HZ FU 
     BECMG 2321/2322 00000KT 1500 FU BR 
     BECMG 2404/2406 29006KT 3000 HZ
       
VIGR 230300Z 00000KT 2500 HZ NSC 11/08 Q1015
VIJP 230330Z 00000KT 2000 FU NSC 21/M01 Q1017 NOSIG
TAF VIJP 222300Z 2300/2406 00000KT 1500 FU HZ NSC 
     BECMG 2304/2306 34005KT 3500 HZ FEW100 
     BECMG 2313/2315 VRB02KT 2000 HZ FU 
     BECMG 2400/2402 00000KT 1500 FU 
     BECMG 2404/2405 34005KT 2500 HZ NSC
       
VILK 230330Z VRB02KT 1300 R27/2000 HZ NSC 16/09 Q1015 NOSIG
TAF VILK 222300Z 2300/2406 00000KT 0800 MIFG NSC 
     BECMG 2302/2304 VRB02KT 1500 BR 
     BECMG 2306/2308 29004KT 2500 HZ 
     BECMG 2315/2317 VRB02KT 1500 HZ BR 
     BECMG 2403/2405 29004KT 2000 HZ
       
VEAT 230330Z 00000KT 2000 BR NSC 22/20 Q1012 NOSIG
VEBN 230330Z 29004KT 1400 R27/1400 BR NSC 16/11 Q1014 BECMG 1500 HZ
TAF VEBN 222300Z 2300/2406 VRB02KT 0800 MIFG NSC 
     BECMG 2303/2305 29006KT 1500 HZ BR 
     BECMG 2307/2309 3000 HZ 
     BECMG 2313/2315 25003KT 1500 HZ BR 
     BECMG 2404/2406 VRB02KT 3000 HZ
       
VEBS 230330Z 05010KT 3500 HZ NSC 24/16 Q1013 NOSIG
VECC 230330Z 33007KT 2600 HZ NSC 19/11 Q1013 NOSIG
TAF VECC 222300Z 2300/2406 30004KT 2000 BR FEW020 
     BECMG 2303/2305 35005KT 3200 HZ 
     BECMG 2314/2316 28005KT 2500 BR HZ 
     BECMG 2323/2401 00000KT 1500 BR 
     BECMG 2403/2405 35005KT 3200 HZ
       
VEGT 220300Z 00000KT 1100 R02/1300 BR FEW012 SCT018 23/22 Q1013 NOSIG
VEGY 230300Z 23004KT 2200 HZ NSC 16/10 Q1015
VEIM 230300Z 06004KT 3500 BR FEW018 BKN100 18/16 Q1014 NOSIG
VEJS 230200Z 31503KT 2000 HZ NSC 16/11 Q1014
VEKO 230300Z 00000KT 1200Z BR NSC 14/11 Q1015
VELP 230330Z 03002KT 1500 BR SCT018 21/19 Q1012 NOSIG
VEMN 230330Z 15002KT 3000 BR FEW100 24/18 Q1014 NOSIG
VEPT 230330Z 25002KT 1500 BR NSC 16/10 Q1014 NOSIG
TAF VEPT 222300Z 2300/2406 27004KT 1200 BR NSC 
     BECMG 2303/2305 2500 HZ 
     BECMG 2307/2309 4000 HZ 
     BECMG 1915/1917 2500 HZ 
     BECMG 2400/2402 24003KT 1000 MIFG 
     BECMG 2404/2406 2000 BR
       
VERC 230330Z 35005KT 3000 HZ NSC 17/06 Q1016 NOSIG
VERP 230000Z 36002KT 3000 HZ NSC 18/14 Q1012 BECMG 2000 HZ
VEGT 220300Z 00000KT 1100 R02/1300 BR FEW012 SCT018 23/22 Q1013 NOSIG
VIGR 230300Z 00000KT 2500 HZ NSC 11/08 Q1015
VOBG 230330Z 11006KT 3000 BR FEW012 22/18 Q1016
TAF VOBG 230200Z 2303/2312 VRB03KT 3000 BR SCT010 
     BECMG 2304/2305 09005KT 6000 SCT012
       
VOBL 230330Z 13005KT 090V170 6000 NSC 22/19 Q1017 NOSIG
TAF VOBL 230200Z 2303/2312 VRB03KT 3000 BR SCT010 
     BECMG 2304/2305 09005KT 6000 SCT012
       
VOBM 230300Z 09003KT 6000 FEW015 23/20 Q1017
TAF VOBM 230200Z 2303/2312 09005KT 6000 SCT015
       
VOBZ 230330Z 00000KT 2000 BR NSC 27/24 Q1012 NOSIG
VOCB 230330Z 06002KT 3500 BR FEW015 25/20 Q1014 NOSIG
TAF VOCB 222300Z 2300/2406 07010KT 4000 BR FEW015 SCT080 
     TEMPO 2300/2303 2000 BR 
     BECMG 2303/2305 6000 
     BECMG 2318/2319 4000 BR 
     BECMG 2403/2405 6000
       
VOCI 230330Z 06005KT 4500 HZ FEW020 28/24 Q1010 BECMG 5000 HZ
TAF VOCI 222300Z 2300/2406 VRB05KT 4000 HZ FEW015 SCT080 
     TEMPO 2300/2304 09005KT 1500 BR 
     BECMG 2306/2308 25010KT 5000 HZ 
     TEMPO 2312/2316 2500 TSRA RA SCT010 SCT015 FEW025CB BKN080 
     BECMG 2320/2322 VRB05KT 4000 HZ SCT015 SCT080 
     TEMPO 2400/2404 10005KT 2000 BR
       
VOCL 230330Z 08004KT 5000 BR FEW015 27/22 Q1010 NOSIG
TAF VOCL 222300Z 2300/2406 09005KT 3000 BR SCT012 BKN080 
     TEMPO 2300/2305 2000 BR RA SCT008 SCT012 FEW025CB BKN080 
     BECMG 2306/2308 25010KT 6000 SCT015 SCT080 
     TEMPO 2314/2318 2500 TSRA RA SCT008 SCT012 FEW025CB BKN080 
     BECMG 2320/2322 VRB05KT 4000 BR SCT015 FEW025CB SCT080 
     TEMPO 2400/2404 10005KT 2000 BR SCT015 SCT080
       
VOGO 230300Z 04006KT 5000 HZ FEW090 28/22 Q1010 BECMG 6000
VOHB 230300Z 10005KT 8000 NSC 24/19 Q1017
TAF VOHB 230200Z 2303/2312 09005KT 6000 SCT015
       
VOHS 230330Z VRB02KT 5000 BR NSC 25/23 Q1016 NOSIG
TAF VOHS 222300Z 2300/2406 12005KT 5000 HZ FEW015 SCT100 
     TEMPO 2300/2303 VRB03KT 1500 BR BKN010 
     BECMG 2305/2307 05008KT 6000 SCT015 SCT025 
     BECMG 2315/2317 13005KT 5000 HZ FEW015 SCT100 
     TEMPO 2323/2403 VRB03KT 1500 BR BKN010 
     BECMG 2405/2406 06007KT 6000 FEW015 SCT025
       
VOHY 230330Z VRB02KT 3000 HZ 27/21 Q1016 NOSIG
VOMD 230330Z 03008KT 5000 HZ FEW020 29/22 Q1012 NOSIG
TAF VOMD 222300Z 2300/2406 03010KT 4000 BR FEW018 SCT100 
     BECMG 2303/2305 6000 
     BECMG 2318/2319 4000 BR 
     BECMG 2403/2405 6000
       
VOML 230330Z 10004KT 6000 NSC 28/20 Q1011 NOSIG
TAF VOML 230200Z 2303/2312 09005KT 3000 BR SCT010 
     BECMG 2304/2305 27010KT 6000 SCT015 
     BECMG 2308/2309 27010KT
       
VOMM 230330Z 32003KT 3000 BR SCT018 29/25 Q1012 NOSIG
TAF VOMM 222300Z 2300/2406 00000KT 4000 BR FEW020 SCT100 
     TEMPO 2300/2303 2500 BR 
     BECMG 2303/2305 04010KT 6000 
     BECMG 2321/2322 00000KT 4000 BR 
     TEMPO 2400/2403 2500 BR 
     BECMG 2403/2405 04010KT 6000
       
TAF VOMY 230200Z 2303/2312 VRB03KT 3000 BR SCT010 
     BECMG 2304/2305 09005KT 6000 SCT012
       
VOND 230330Z 00000KT 2500 BR NSC 25/20 Q1015
VORY 230300Z 32005KT 2000 HZ FEW020 27/22 Q1012 NOSIG
VOTP 230330Z 00000KT 2000 BR SCT015 25/22 Q1012
VOTR 230330Z 35005KT 3000 HZ FEW020 27/21 Q1010 NOSIG
TAF VOTR 222300Z 2300/2406 03010KT 4000 BR FEW018 SCT100 
     TEMPO 2300/2303 2500 BR 
     BECMG 2306/2307 6000 
     BECMG 2318/2319 4000 BR 
     TEMPO 2400/2403 2500 BR
       
VOTV 230330Z 28004KT 3000 HZ FEW015 29/25 Q1009 BECMG 4000 HZ
TAF VOTV 222300Z 2300/2406 VRB05KT 4000 HZ SCT015 SCT080 
     TEMPO 2300/2304 09005KT 2000 BR SCT015 BKN080 
     BECMG 2306/2308 30010KT 6000 
     TEMPO 2312/2316 2000 TSRA RA SCT010 SCT015 FEW025CB BKN080 
     BECMG 2320/2322 VRB05KT 3000 HZ SCT015 FEW025CB SCT080 
     TEMPO 2400/2404 09005KT 2000 BR SCT015 SCT080
       
VOVZ 230300Z 33007KT 2500 BR/FU NSC 27/23 Q1012 BECMG 3000 BR/FU
VIAR 230230Z 00000KT 1700 BR SCT100 09/09 Q1014 NOSIG
TAF VIAR 222300Z 2300/2406 VRB02KT 1500 BR FEW100 
     BECMG 2305/2307 30006KT 4000 HZ NSC 
     BECMG 2314/2316 VRB02KT 2500 HZ BR 
     BECMG 2321/2322 00000KT 1500 BR 
     BECMG 2404/2406 30007KT 3000 BR HZ
       
VIDP 230230Z 23004KT 1100 R28/P2000 R29/P2000 FU NSC 11/04 Q1014 NOSIG
TAF VIDP 222300Z 2300/2406 26005KT 1500 FU FEW100 
     BECMG 2305/2307 29008KT 3500 HZ NSC 
     BECMG 2314/2316 26005KT 2500 HZ FU 
     BECMG 2321/2322 00000KT 1500 FU BR 
     BECMG 2404/2406 29006KT 3000 HZ
       
VIGR 230300Z 00000KT 2500 HZ NSC 11/08 Q1015
VIJP 230330Z 00000KT 2000 FU NSC 21/M01 Q1017 NOSIG
TAF VIJP 222300Z 2300/2406 00000KT 1500 FU HZ NSC 
     BECMG 2304/2306 34005KT 3500 HZ FEW100 
     BECMG 2313/2315 VRB02KT 2000 HZ FU 
     BECMG 2400/2402 00000KT 1500 FU 
     BECMG 2404/2405 34005KT 2500 HZ NSC
       
VILK 230330Z VRB02KT 1300 R27/2000 HZ NSC 16/09 Q1015 NOSIG
TAF VILK 222300Z 2300/2406 00000KT 0800 MIFG NSC 
     BECMG 2302/2304 VRB02KT 1500 BR 
     BECMG 2306/2308 29004KT 2500 HZ 
     BECMG 2315/2317 VRB02KT 1500 HZ BR 
     BECMG 2403/2405 29004KT 2000 HZ
       
VIAR 230230Z 00000KT 1700 BR SCT100 09/09 Q1014 NOSIG
TAF VIAR 222300Z 2300/2406 VRB02KT 1500 BR FEW100 
     BECMG 2305/2307 30006KT 4000 HZ NSC 
     BECMG 2314/2316 VRB02KT 2500 HZ BR 
     BECMG 2321/2322 00000KT 1500 BR 
     BECMG 2404/2406 30007KT 3000 BR HZ
       
VIDP 230230Z 23004KT 1100 R28/P2000 R29/P2000 FU NSC 11/04 Q1014 NOSIG
TAF VIDP 222300Z 2300/2406 26005KT 1500 FU FEW100 
     BECMG 2305/2307 29008KT 3500 HZ NSC 
     BECMG 2314/2316 26005KT 2500 HZ FU 
     BECMG 2321/2322 00000KT 1500 FU BR 
     BECMG 2404/2406 29006KT 3000 HZ
       
VIGR 230300Z 00000KT 2500 HZ NSC 11/08 Q1015
VIJP 230330Z 00000KT 2000 FU NSC 21/M01 Q1017 NOSIG
TAF VIJP 222300Z 2300/2406 00000KT 1500 FU HZ NSC 
     BECMG 2304/2306 34005KT 3500 HZ FEW100 
     BECMG 2313/2315 VRB02KT 2000 HZ FU 
     BECMG 2400/2402 00000KT 1500 FU 
     BECMG 2404/2405 34005KT 2500 HZ NSC
       
VILK 230330Z VRB02KT 1300 R27/2000 HZ NSC 16/09 Q1015 NOSIG
TAF VILK 222300Z 2300/2406 00000KT 0800 MIFG NSC 
     BECMG 2302/2304 VRB02KT 1500 BR 
     BECMG 2306/2308 29004KT 2500 HZ 
     BECMG 2315/2317 VRB02KT 1500 HZ BR 
     BECMG 2403/2405 29004KT 2000 HZ
       
VEAT 230330Z 00000KT 2000 BR NSC 22/20 Q1012 NOSIG
VEBN 230330Z 29004KT 1400 R27/1400 BR NSC 16/11 Q1014 BECMG 1500 HZ
TAF VEBN 222300Z 2300/2406 VRB02KT 0800 MIFG NSC 
     BECMG 2303/2305 29006KT 1500 HZ BR 
     BECMG 2307/2309 3000 HZ 
     BECMG 2313/2315 25003KT 1500 HZ BR 
     BECMG 2404/2406 VRB02KT 3000 HZ
       
VEBS 230330Z 05010KT 3500 HZ NSC 24/16 Q1013 NOSIG
VECC 230330Z 33007KT 2600 HZ NSC 19/11 Q1013 NOSIG
TAF VECC 222300Z 2300/2406 30004KT 2000 BR FEW020 
     BECMG 2303/2305 35005KT 3200 HZ 
     BECMG 2314/2316 28005KT 2500 BR HZ 
     BECMG 2323/2401 00000KT 1500 BR 
     BECMG 2403/2405 35005KT 3200 HZ
       
VEGT 220300Z 00000KT 1100 R02/1300 BR FEW012 SCT018 23/22 Q1013 NOSIG
VEGY 230300Z 23004KT 2200 HZ NSC 16/10 Q1015
VEIM 230300Z 06004KT 3500 BR FEW018 BKN100 18/16 Q1014 NOSIG
VEJS 230200Z 31503KT 2000 HZ NSC 16/11 Q1014
VEKO 230300Z 00000KT 1200Z BR NSC 14/11 Q1015
VELP 230330Z 03002KT 1500 BR SCT018 21/19 Q1012 NOSIG
VEMN 230330Z 15002KT 3000 BR FEW100 24/18 Q1014 NOSIG
VEPT 230330Z 25002KT 1500 BR NSC 16/10 Q1014 NOSIG
TAF VEPT 222300Z 2300/2406 27004KT 1200 BR NSC 
     BECMG 2303/2305 2500 HZ 
     BECMG 2307/2309 4000 HZ 
     BECMG 1915/1917 2500 HZ 
     BECMG 2400/2402 24003KT 1000 MIFG 
     BECMG 2404/2406 2000 BR
       
VERC 230330Z 35005KT 3000 HZ NSC 17/06 Q1016 NOSIG
VERP 230000Z 36002KT 3000 HZ NSC 18/14 Q1012 BECMG 2000 HZ
VOHY 230330Z VRB02KT 3000 HZ 27/21 Q1016 NOSIG
VEIM 230300Z 06004KT 3500 BR FEW018 BKN100 18/16 Q1014 NOSIG
VIDP 230230Z 23004KT 1100 R28/P2000 R29/P2000 FU NSC 11/04 Q1014 NOSIG
TAF VIDP 222300Z 2300/2406 26005KT 1500 FU FEW100 
     BECMG 2305/2307 29008KT 3500 HZ NSC 
     BECMG 2314/2316 26005KT 2500 HZ FU 
     BECMG 2321/2322 00000KT 1500 FU BR 
     BECMG 2404/2406 29006KT 3000 HZ
       
VAJB 230300Z 00000KT 3000 HZ NSC 17/10 Q1016
VIJP 230330Z 00000KT 2000 FU NSC 21/M01 Q1017 NOSIG
TAF VIJP 222300Z 2300/2406 00000KT 1500 FU HZ NSC 
     BECMG 2304/2306 34005KT 3500 HZ FEW100 
     BECMG 2313/2315 VRB02KT 2000 HZ FU 
     BECMG 2400/2402 00000KT 1500 FU 
     BECMG 2404/2405 34005KT 2500 HZ NSC
       
VEJS 230200Z 31503KT 2000 HZ NSC 16/11 Q1014
VELP 230330Z 03002KT 1500 BR SCT018 21/19 Q1012 NOSIG
VILK 230330Z VRB02KT 1300 R27/2000 HZ NSC 16/09 Q1015 NOSIG
TAF VILK 222300Z 2300/2406 00000KT 0800 MIFG NSC 
     BECMG 2302/2304 VRB02KT 1500 BR 
     BECMG 2306/2308 29004KT 2500 HZ 
     BECMG 2315/2317 VRB02KT 1500 HZ BR 
     BECMG 2403/2405 29004KT 2000 HZ
       
VOMD 230330Z 03008KT 5000 HZ FEW020 29/22 Q1012 NOSIG
TAF VOMD 222300Z 2300/2406 03010KT 4000 BR FEW018 SCT100 
     BECMG 2303/2305 6000 
     BECMG 2318/2319 4000 BR 
     BECMG 2403/2405 6000
       
VOML 230330Z 10004KT 6000 NSC 28/20 Q1011 NOSIG
TAF VOML 230200Z 2303/2312 09005KT 3000 BR SCT010 
     BECMG 2304/2305 27010KT 6000 SCT015 
     BECMG 2308/2309 27010KT
       
VANP 230330Z 00000KT 2500 HZ NSC 24/14 Q1015 NOSIG
TAF VANP 222300Z 2300/2406 05003KT 2000 HZ SCT020 SCT100 
     BECMG 2304/2306 02003KT 4000 HZ FEW020 SCT100 
     BECMG 2312/2314 00503KT 3000 HZ SCT020 BKN100 
     BECMG 2404/2406 07005KT 4000 HZ FEW020 SCT100 
     TEMPO 2400/2403 1500 BR HZ
       
VECC 230330Z 33007KT 2600 HZ NSC 19/11 Q1013 NOSIG
TAF VECC 222300Z 2300/2406 30004KT 2000 BR FEW020 
     BECMG 2303/2305 35005KT 3200 HZ 
     BECMG 2314/2316 28005KT 2500 BR HZ 
     BECMG 2323/2401 00000KT 1500 BR 
     BECMG 2403/2405 35005KT 3200 HZ
       
VEPT 230330Z 25002KT 1500 BR NSC 16/10 Q1014 NOSIG
TAF VEPT 222300Z 2300/2406 27004KT 1200 BR NSC 
     BECMG 2303/2305 2500 HZ 
     BECMG 2307/2309 4000 HZ 
     BECMG 1915/1917 2500 HZ 
     BECMG 2400/2402 24003KT 1000 MIFG 
     BECMG 2404/2406 2000 BR
       
VORY 230300Z 32005KT 2000 HZ FEW020 27/22 Q1012 NOSIG
VARK 230100Z 13004KT 5000 HZ NSC 18/09 Q1012
VOTV 230330Z 28004KT 3000 HZ FEW015 29/25 Q1009 BECMG 4000 HZ
TAF VOTV 222300Z 2300/2406 VRB05KT 4000 HZ SCT015 SCT080 
     TEMPO 2300/2304 09005KT 2000 BR SCT015 BKN080 
     BECMG 2306/2308 30010KT 6000 
     TEMPO 2312/2316 2000 TSRA RA SCT010 SCT015 FEW025CB BKN080 
     BECMG 2320/2322 VRB05KT 3000 HZ SCT015 FEW025CB SCT080 
     TEMPO 2400/2404 09005KT 2000 BR SCT015 SCT080
       
VOTR 230330Z 35005KT 3000 HZ FEW020 27/21 Q1010 NOSIG
TAF VOTR 222300Z 2300/2406 03010KT 4000 BR FEW018 SCT100 
     TEMPO 2300/2303 2500 BR 
     BECMG 2306/2307 6000 
     BECMG 2318/2319 4000 BR 
     TEMPO 2400/2403 2500 BR
       
VOTP 230330Z 00000KT 2000 BR SCT015 25/22 Q1012
VAUD 230300Z 32003KT 5000 HZ NSC 16/03 Q1017 NOSIG
VABO 230300Z 02004KT 2000 HZ NSC 19/14 Q1012 NOSIG
VOBZ 230330Z 00000KT 2000 BR NSC 27/24 Q1012 NOSIG